datetime,pool elevation
1938-02-08,4111.2
1938-02-09,4111.4
1938-02-10,4110.7
1938-02-11,4110.2
1938-02-12,4111.7
1938-02-13,4113.6
1938-02-14,4114.03
1938-02-15,4114.4
1938-02-16,4114.9
1938-02-17,4114.85
1938-02-18,4114.4
1938-02-19,4114.1
1938-02-20,4116.0
1938-02-21,4119.3
1938-02-22,4119.45
1938-02-23,4119.55
1938-02-24,4119.65
1938-02-25,4119.75
1938-02-26,4120.05
1938-02-27,4119.85
1938-02-28,4119.95
1938-03-01,4119.95
1938-03-02,4120.05
1938-03-03,4120.0
1938-03-04,4120.1
1938-03-05,4119.9
1938-03-06,4119.95
1938-03-07,4120.0
1938-03-08,4120.2
1938-03-09,4120.4
1938-03-10,4120.3
1938-03-11,4120.3
1938-03-12,4120.4
1938-03-13,4120.35
1938-03-14,4120.35
1938-03-15,4120.45
1938-03-16,4120.57
1938-03-17,4120.5
1938-03-18,4120.5
1938-03-19,4120.6
1938-03-20,4120.7
1938-03-21,4121.7
1938-03-22,4123.5
1938-03-23,4123.2
1938-03-24,4123.2
1938-03-25,4123.1
1938-03-26,4123.0
1938-03-27,4123.1
1938-03-28,4123.35
1938-03-29,4123.5
1938-03-30,4123.6
1938-03-31,4123.7
1938-04-01,4123.8
1938-04-02,4124.0
1938-04-03,4124.2
1938-04-04,4124.3
1938-04-05,4124.6
1938-04-06,4124.9
1938-04-07,4125.1
1938-04-08,4125.2
1938-04-09,4125.5
1938-04-10,4125.65
1938-04-11,4125.85
1938-04-12,4125.95
1938-04-13,4126.3
1938-04-14,4126.75
1938-04-15,4127.4
1938-04-16,4127.45
1938-04-17,4127.25
1938-04-18,4127.15
1938-04-19,4127.2
1938-04-20,4127.3
1938-04-21,4127.35
1938-04-22,4127.2
1938-04-23,4127.0
1938-04-24,4127.05
1938-04-25,4127.15
1938-04-26,4127.25
1938-04-27,4127.2
1938-04-28,4127.2
1938-04-29,4127.1
1938-04-30,4127.25
1938-05-01,4127.15
1938-05-02,4127.05
1938-05-03,4126.9
1938-05-04,4126.8
1938-05-05,4126.9
1938-05-06,4126.95
1938-05-07,4126.9
1938-05-08,4126.85
1938-05-09,4126.85
1938-05-10,4126.9
1938-05-11,4127.0
1938-05-12,4127.1
1938-05-13,4127.15
1938-05-14,4127.1
1938-05-15,4127.05
1938-05-16,4127.05
1938-05-17,4127.05
1938-05-18,4127.0
1938-05-19,4127.0
1938-05-20,4127.05
1938-05-21,4127.05
1938-05-22,4127.15
1938-05-23,4127.2
1938-05-24,4127.2
1938-05-25,4127.25
1938-05-26,4127.25
1938-05-27,4127.05
1938-05-28,4126.85
1938-05-29,4126.9
1938-05-30,4126.8
1938-05-31,4126.35
1938-06-01,4126.2
1938-06-02,4126.4
1938-06-03,4126.35
1938-06-04,4126.4
1938-06-05,4126.6
1938-06-06,4126.8
1938-06-07,4127.0
1938-06-08,4127.0
1938-06-09,4127.1
1938-06-10,4127.2
1938-06-11,4127.05
1938-06-12,4127.0
1938-06-13,4127.0
1938-06-14,4127.0
1938-06-15,4127.15
1938-06-16,4127.2
1938-06-17,4127.3
1938-06-18,4127.35
1938-06-19,4127.3
1938-06-20,4127.25
1938-06-21,4126.77
1938-06-22,4126.47
1938-06-23,4126.1
1938-06-24,4126.87
1938-06-25,4127.1
1938-06-26,4127.3
1938-06-27,4127.55
1938-06-28,4127.5
1938-06-29,4128.2
1938-06-30,4128.92
1938-07-01,4129.4
1938-07-02,4129.3
1938-07-03,4129.02
1938-07-04,4128.55
1938-07-05,4128.15
1938-07-06,4127.85
1938-07-07,4127.6
1938-07-08,4127.3
1938-07-09,4127.17
1938-07-10,4127.3
1938-07-11,4127.5
1938-07-12,4127.6
1938-07-13,4127.47
1938-07-14,4127.3
1938-07-15,4127.42
1938-07-16,4127.45
1938-07-17,4127.45
1938-07-18,4127.52
1938-07-19,4127.62
1938-07-20,4127.85
1938-07-21,4128.07
1938-07-22,4128.1
1938-07-23,4128.07
1938-07-24,4127.97
1938-07-25,4127.87
1938-07-26,4127.75
1938-07-27,4127.55
1938-07-28,4127.4
1938-07-29,4127.4
1938-07-30,4127.42
1938-07-31,4127.4
1938-08-01,4127.4
1938-08-02,4127.3
1938-08-03,4127.3
1938-08-04,4127.35
1938-08-05,4127.37
1938-08-06,4127.52
1938-08-07,4127.57
1938-08-08,4127.52
1938-08-09,4127.62
1938-08-10,4127.72
1938-08-11,4127.95
1938-08-12,4127.92
1938-08-13,4127.77
1938-08-14,4127.62
1938-08-15,4127.5
1938-08-16,4127.35
1938-08-17,4127.15
1938-08-18,4126.8
1938-08-19,4126.42
1938-08-20,4126.15
1938-08-21,4126.0
1938-08-22,4126.0
1938-08-23,4126.0
1938-08-24,4126.0
1938-08-25,4125.87
1938-08-26,4125.67
1938-08-27,4125.6
1938-08-28,4125.6
1938-08-29,4125.6
1938-08-30,4125.67
1938-08-31,4125.8
1938-09-01,4125.67
1938-09-02,4126.6
1938-09-03,4125.97
1938-09-04,4125.0
1938-09-05,4124.2
1938-09-06,4123.35
1938-09-07,4123.2
1938-09-08,4122.95
1938-09-09,4122.6
1938-09-10,4122.0
1938-09-11,4121.35
1938-09-12,4121.8
1938-09-13,4121.92
1938-09-14,4121.52
1938-09-15,4120.87
1938-09-16,4120.17
1938-09-17,4119.45
1938-09-18,4118.5
1938-09-19,4117.37
1938-09-20,4116.97
1938-09-21,4117.1
1938-09-22,4118.25
1938-09-23,4118.7
1938-09-24,4117.65
1938-09-25,4116.45
1938-09-26,4115.67
1938-09-27,4115.42
1938-09-28,4115.95
1938-09-29,4116.35
1938-09-30,4116.62
1938-10-01,4116.8
1938-10-02,4116.92
1938-10-03,4116.6
1938-10-04,4115.95
1938-10-05,4113.62
1938-10-06,4110.5
1938-10-07,4109.12
1938-10-08,4113.35
1938-10-09,4113.1
1938-10-10,4109.3
1938-10-11,4108.35
1938-10-12,4108.2
1938-10-13,4108.2
1938-10-14,4108.1
1938-10-15,4115.32
1938-10-16,4119.28
1938-10-17,4120.95
1938-10-18,4122.35
1938-10-19,4123.85
1938-10-20,4124.65
1938-10-21,4124.57
1938-10-22,4125.07
1938-10-23,4125.2
1938-10-24,4125.2
1938-10-25,4125.2
1938-10-26,4125.2
1938-10-27,4125.15
1938-10-28,4125.15
1938-10-29,4125.15
1938-10-30,4125.15
1938-10-31,4125.1
1938-11-01,4125.0
1938-11-02,4124.97
1938-11-03,4124.87
1938-11-04,4124.88
1938-11-05,4124.83
1938-11-06,4124.8
1938-11-07,4124.78
1938-11-08,4124.75
1938-11-09,4124.73
1938-11-10,4124.7
1938-11-11,4124.63
1938-11-12,4124.6
1938-11-13,4124.58
1938-11-14,4123.28
1938-11-15,4122.07
1938-11-16,4120.92
1938-11-17,4120.8
1938-11-18,4119.81
1938-11-19,4121.02
1938-11-20,4124.43
1938-11-21,4125.0
1938-11-22,4125.0
1938-11-23,4125.05
1938-11-24,4125.95
1938-11-25,4127.57
1938-11-26,4127.6
1938-11-27,4128.55
1938-11-28,4130.65
1938-11-29,4131.63
1938-11-30,4134.53
1938-12-01,4136.57
1938-12-02,4138.32
1938-12-03,4139.47
1938-12-04,4141.36
1938-12-05,4142.58
1938-12-06,4143.96
1938-12-07,4145.26
1938-12-08,4146.41
1938-12-09,4147.48
1938-12-10,4148.47
1938-12-11,4149.46
1938-12-12,4150.56
1938-12-13,4150.99
1938-12-14,4150.69
1938-12-15,4150.28
1938-12-16,4149.86
1938-12-17,4149.54
1938-12-18,4149.23
1938-12-19,4149.13
1938-12-20,4149.15
1938-12-21,4149.12
1938-12-22,4149.13
1938-12-23,4149.15
1938-12-24,4149.12
1938-12-25,4149.06
1938-12-26,4149.03
1938-12-27,4149.02
1938-12-28,4149.0
1938-12-29,4149.0
1938-12-30,4148.99
1938-12-31,4148.95
1939-01-01,4148.93
1939-01-02,4148.91
1939-01-03,4148.9
1939-01-04,4148.89
1939-01-05,4148.89
1939-01-06,4148.88
1939-01-07,4148.88
1939-01-08,4149.01
1939-01-09,4149.83
1939-01-10,4150.72
1939-01-11,4151.77
1939-01-12,4152.65
1939-01-13,4153.57
1939-01-14,4154.33
1939-01-15,4155.1
1939-01-16,4155.19
1939-01-17,4155.17
1939-01-18,4155.16
1939-01-19,4155.16
1939-01-20,4155.1
1939-01-21,4155.02
1939-01-22,4155.01
1939-01-23,4155.06
1939-01-24,4155.02
1939-01-25,4155.01
1939-01-26,4154.98
1939-01-27,4154.93
1939-01-28,4154.93
1939-01-29,4154.94
1939-01-30,4154.92
1939-01-31,4154.89
1939-02-01,4154.84
1939-02-02,4154.84
1939-02-03,4154.8
1939-02-04,4154.8
1939-02-05,4154.79
1939-02-06,4154.72
1939-02-07,4154.38
1939-02-08,4153.98
1939-02-09,4153.72
1939-02-10,4153.54
1939-02-11,4153.36
1939-02-12,4153.09
1939-02-13,4152.78
1939-02-14,4152.49
1939-02-15,4152.21
1939-02-16,4152.0
1939-02-17,4151.78
1939-02-18,4151.64
1939-02-19,4151.57
1939-02-20,4151.55
1939-02-21,4151.52
1939-02-22,4151.53
1939-02-23,4151.54
1939-02-24,4151.54
1939-02-25,4151.52
1939-02-26,4151.53
1939-02-27,4151.58
1939-02-28,4151.44
1939-03-01,4151.15
1939-03-02,4150.83
1939-03-03,4150.53
1939-03-04,4150.17
1939-03-05,4149.83
1939-03-06,4149.44
1939-03-07,4149.07
1939-03-08,4148.69
1939-03-09,4148.34
1939-03-10,4148.04
1939-03-11,4147.69
1939-03-12,4147.28
1939-03-13,4146.84
1939-03-14,4146.43
1939-03-15,4145.96
1939-03-16,4145.42
1939-03-17,4144.81
1939-03-18,4144.09
1939-03-19,4143.27
1939-03-20,4142.58
1939-03-21,4141.82
1939-03-22,4140.99
1939-03-23,4140.2
1939-03-24,4139.47
1939-03-25,4138.62
1939-03-26,4137.77
1939-03-27,4136.82
1939-03-28,4135.82
1939-03-29,4134.65
1939-03-30,4133.41
1939-03-31,4132.34
1939-04-01,4130.93
1939-04-02,4130.1
1939-04-03,4130.09
1939-04-04,4130.13
1939-04-05,4130.17
1939-04-06,4130.25
1939-04-07,4130.4
1939-04-08,4130.72
1939-04-09,4131.14
1939-04-10,4131.5
1939-04-11,4131.08
1939-04-12,4131.23
1939-04-13,4131.73
1939-04-14,4132.15
1939-04-15,4132.63
1939-04-16,4133.15
1939-04-17,4133.59
1939-04-18,4134.0
1939-04-19,4134.44
1939-04-20,4134.91
1939-04-21,4135.38
1939-04-22,4135.91
1939-04-23,4136.31
1939-04-24,4136.78
1939-04-25,4137.26
1939-04-26,4137.73
1939-04-27,4137.82
1939-04-28,4138.0
1939-04-29,4138.55
1939-04-30,4138.98
1939-05-01,4139.44
1939-05-02,4139.42
1939-05-03,4140.38
1939-05-04,4140.7
1939-05-05,4140.85
1939-05-06,4140.92
1939-05-07,4140.9
1939-05-08,4140.86
1939-05-09,4140.9
1939-05-10,4140.85
1939-05-11,4140.9
1939-05-12,4140.94
1939-05-13,4141.0
1939-05-14,4140.68
1939-05-15,4140.58
1939-05-16,4140.45
1939-05-17,4140.03
1939-05-18,4139.73
1939-05-19,4139.72
1939-05-20,4139.66
1939-05-21,4139.53
1939-05-22,4139.4
1939-05-23,4139.15
1939-05-24,4138.62
1939-05-25,4138.06
1939-05-26,4137.74
1939-05-27,4137.35
1939-05-28,4136.68
1939-05-29,4135.57
1939-05-30,4134.44
1939-05-31,4133.35
1939-06-01,4132.28
1939-06-02,4131.4
1939-06-03,4130.82
1939-06-04,4130.37
1939-06-05,4130.09
1939-06-06,4129.76
1939-06-07,4129.65
1939-06-08,4129.7
1939-06-09,4129.75
1939-06-10,4129.75
1939-06-11,4129.68
1939-06-12,4129.58
1939-06-13,4129.47
1939-06-14,4129.35
1939-06-15,4129.17
1939-06-16,4129.07
1939-06-17,4129.06
1939-06-18,4128.97
1939-06-19,4128.92
1939-06-20,4128.84
1939-06-21,4128.8
1939-06-22,4128.82
1939-06-23,4128.85
1939-06-24,4129.0
1939-06-25,4129.05
1939-06-26,4129.03
1939-06-27,4129.01
1939-06-28,4129.01
1939-06-29,4129.06
1939-06-30,4129.11
1939-07-01,4129.15
1939-07-02,4129.14
1939-07-03,4129.29
1939-07-04,4129.24
1939-07-05,4129.22
1939-07-06,4129.21
1939-07-07,4129.2
1939-07-08,4129.13
1939-07-09,4128.98
1939-07-10,4128.89
1939-07-11,4128.88
1939-07-12,4128.82
1939-07-13,4128.68
1939-07-14,4128.54
1939-07-15,4128.4
1939-07-16,4128.4
1939-07-17,4128.58
1939-07-18,4128.57
1939-07-19,4128.61
1939-07-20,4128.73
1939-07-21,4128.76
1939-07-22,4128.8
1939-07-23,4128.8
1939-07-24,4128.75
1939-07-25,4128.75
1939-07-26,4128.81
1939-07-27,4129.12
1939-07-28,4129.44
1939-07-29,4129.74
1939-07-30,4130.07
1939-07-31,4130.3
1939-08-01,4130.58
1939-08-02,4131.02
1939-08-03,4130.84
1939-08-04,4130.42
1939-08-05,4130.83
1939-08-06,4131.16
1939-08-07,4131.35
1939-08-08,4130.52
1939-08-09,4130.98
1939-08-10,4131.33
1939-08-11,4131.66
1939-08-12,4132.01
1939-08-13,4132.18
1939-08-14,4132.34
1939-08-15,4132.55
1939-08-16,4132.85
1939-08-17,4133.08
1939-08-18,4133.52
1939-08-19,4133.68
1939-08-20,4133.75
1939-08-21,4133.88
1939-08-22,4134.03
1939-08-23,4134.13
1939-08-24,4134.28
1939-08-25,4134.42
1939-08-26,4134.56
1939-08-27,4134.6
1939-08-28,4134.71
1939-08-29,4134.67
1939-08-30,4134.54
1939-08-31,4134.38
1939-09-01,4134.14
1939-09-02,4133.91
1939-09-03,4133.88
1939-09-04,4133.81
1939-09-05,4133.82
1939-09-06,4133.91
1939-09-07,4134.03
1939-09-08,4134.14
1939-09-09,4134.33
1939-09-10,4134.53
1939-09-11,4134.78
1939-09-12,4135.02
1939-09-13,4135.34
1939-09-14,4136.08
1939-09-15,4137.56
1939-09-16,4138.79
1939-09-17,4139.75
1939-09-18,4140.64
1939-09-19,4141.54
1939-09-20,4142.24
1939-09-21,4142.83
1939-09-22,4143.5
1939-09-23,4144.06
1939-09-24,4144.59
1939-09-25,4145.08
1939-09-26,4145.57
1939-09-27,4146.04
1939-09-28,4146.42
1939-09-29,4146.75
1939-09-30,4147.27
1939-10-01,4147.75
1939-10-02,4148.17
1939-10-03,4148.6
1939-10-04,4149.1
1939-10-05,4149.7
1939-10-06,4150.45
1939-10-07,4151.2
1939-10-08,4151.96
1939-10-09,4152.7
1939-10-10,4153.38
1939-10-11,4154.03
1939-10-12,4154.2
1939-10-13,4154.15
1939-10-14,4154.09
1939-10-15,4154.04
1939-10-16,4153.99
1939-10-17,4153.75
1939-10-18,4153.43
1939-10-19,4153.13
1939-10-20,4152.86
1939-10-21,4152.61
1939-10-22,4152.46
1939-10-23,4152.37
1939-10-24,4152.34
1939-10-25,4152.29
1939-10-26,4152.26
1939-10-27,4152.24
1939-10-28,4152.21
1939-10-29,4152.19
1939-10-30,4152.17
1939-10-31,4152.13
1939-11-01,4152.19
1939-11-02,4152.1
1939-11-03,4152.06
1939-11-04,4152.03
1939-11-05,4152.01
1939-11-06,4152.0
1939-11-07,4152.0
1939-11-08,4151.99
1939-11-09,4151.97
1939-11-10,4151.96
1939-11-11,4151.67
1939-11-12,4151.28
1939-11-13,4150.85
1939-11-14,4150.49
1939-11-15,4150.23
1939-11-16,4150.13
1939-11-17,4150.1
1939-11-18,4150.1
1939-11-19,4150.1
1939-11-20,4150.09
1939-11-21,4150.09
1939-11-22,4150.09
1939-11-23,4150.09
1939-11-24,4150.09
1939-11-25,4150.1
1939-11-26,4150.1
1939-11-27,4150.1
1939-11-28,4150.1
1939-11-29,4150.1
1939-11-30,4150.1
1939-12-01,4150.1
1939-12-02,4150.1
1939-12-03,4150.1
1939-12-04,4150.1
1939-12-05,4150.1
1939-12-06,4150.1
1939-12-07,4150.1
1939-12-08,4150.09
1939-12-09,4150.09
1939-12-10,4150.09
1939-12-11,4150.09
1939-12-12,4150.09
1939-12-13,4150.08
1939-12-14,4150.02
1939-12-15,4149.81
1939-12-16,4149.38
1939-12-17,4149.07
1939-12-18,4148.8
1939-12-19,4148.66
1939-12-20,4148.6
1939-12-21,4148.59
1939-12-22,4148.59
1939-12-23,4148.59
1939-12-24,4148.61
1939-12-25,4148.64
1939-12-26,4148.67
1939-12-27,4148.69
1939-12-28,4148.7
1939-12-29,4148.7
1939-12-30,4148.7
1939-12-31,4148.7
1940-01-01,4148.71
1940-01-02,4148.72
1940-01-03,4148.73
1940-01-04,4148.73
1940-01-05,4148.74
1940-01-06,4148.75
1940-01-07,4148.75
1940-01-08,4148.75
1940-01-09,4148.77
1940-01-10,4148.8
1940-01-11,4148.8
1940-01-12,4148.8
1940-01-13,4148.8
1940-01-14,4148.8
1940-01-15,4148.81
1940-01-16,4148.81
1940-01-17,4148.81
1940-01-18,4148.81
1940-01-19,4148.82
1940-01-20,4148.82
1940-01-21,4148.84
1940-01-22,4148.84
1940-01-23,4148.85
1940-01-24,4148.85
1940-01-25,4148.86
1940-01-26,4148.87
1940-01-27,4148.88
1940-01-28,4148.89
1940-01-29,4148.89
1940-01-30,4148.89
1940-01-31,4148.89
1940-02-01,4148.88
1940-02-02,4148.93
1940-02-03,4148.98
1940-02-04,4148.98
1940-02-05,4149.02
1940-02-06,4149.02
1940-02-07,4149.02
1940-02-08,4149.03
1940-02-09,4149.03
1940-02-10,4149.02
1940-02-11,4148.86
1940-02-12,4148.76
1940-02-13,4148.66
1940-02-14,4148.47
1940-02-15,4148.08
1940-02-16,4147.77
1940-02-17,4147.38
1940-02-18,4147.04
1940-02-19,4146.77
1940-02-20,4146.7
1940-02-21,4146.7
1940-02-22,4146.7
1940-02-23,4146.7
1940-02-24,4146.71
1940-02-25,4146.73
1940-02-26,4146.73
1940-02-27,4146.73
1940-02-28,4146.73
1940-02-29,4146.69
1940-03-01,4146.42
1940-03-02,4145.89
1940-03-03,4145.34
1940-03-04,4144.9
1940-03-05,4144.44
1940-03-06,4144.0
1940-03-07,4143.7
1940-03-08,4143.32
1940-03-09,4142.72
1940-03-10,4142.15
1940-03-11,4141.75
1940-03-12,4141.37
1940-03-13,4140.9
1940-03-14,4140.42
1940-03-15,4139.8
1940-03-16,4139.03
1940-03-17,4138.18
1940-03-18,4137.18
1940-03-19,4136.29
1940-03-20,4135.28
1940-03-21,4134.21
1940-03-22,4133.13
1940-03-23,4131.75
1940-03-24,4130.27
1940-03-25,4128.67
1940-03-26,4127.09
1940-03-27,4126.25
1940-03-28,4126.0
1940-03-29,4126.11
1940-03-30,4125.93
1940-03-31,4125.74
1940-04-01,4125.62
1940-04-02,4125.76
1940-04-03,4125.68
1940-04-04,4125.65
1940-04-05,4125.74
1940-04-06,4125.77
1940-04-07,4125.73
1940-04-08,4125.71
1940-04-09,4125.68
1940-04-10,4125.76
1940-04-11,4125.87
1940-04-12,4125.95
1940-04-13,4126.02
1940-04-14,4126.12
1940-04-15,4126.23
1940-04-16,4126.38
1940-04-17,4126.68
1940-04-18,4126.97
1940-04-19,4127.01
1940-04-20,4127.22
1940-04-21,4127.54
1940-04-22,4127.92
1940-04-23,4128.08
1940-04-24,4128.45
1940-04-25,4128.59
1940-04-26,4128.56
1940-04-27,4128.57
1940-04-28,4128.58
1940-04-29,4128.6
1940-04-30,4128.64
1940-05-01,4128.6
1940-05-02,4128.52
1940-05-03,4128.35
1940-05-04,4128.12
1940-05-05,4127.8
1940-05-06,4127.52
1940-05-07,4127.62
1940-05-08,4127.93
1940-05-09,4128.28
1940-05-10,4128.74
1940-05-11,4129.15
1940-05-12,4129.55
1940-05-13,4129.89
1940-05-14,4130.22
1940-05-15,4130.34
1940-05-16,4130.35
1940-05-17,4130.38
1940-05-18,4130.42
1940-05-19,4130.49
1940-05-20,4130.53
1940-05-21,4130.68
1940-05-22,4130.91
1940-05-23,4131.33
1940-05-24,4131.59
1940-05-25,4131.48
1940-05-26,4131.28
1940-05-27,4130.89
1940-05-28,4130.44
1940-05-29,4129.72
1940-05-30,4129.25
1940-05-31,4129.11
1940-06-01,4128.9
1940-06-02,4128.81
1940-06-03,4128.72
1940-06-04,4128.68
1940-06-05,4128.65
1940-06-06,4128.71
1940-06-07,4128.68
1940-06-08,4128.65
1940-06-09,4128.56
1940-06-10,4128.46
1940-06-11,4128.32
1940-06-12,4128.3
1940-06-13,4128.49
1940-06-14,4128.75
1940-06-15,4128.94
1940-06-16,4129.05
1940-06-17,4129.18
1940-06-18,4129.31
1940-06-19,4129.29
1940-06-20,4129.29
1940-06-21,4129.14
1940-06-22,4129.02
1940-06-23,4129.31
1940-06-24,4129.72
1940-06-25,4130.39
1940-06-26,4130.84
1940-06-27,4131.2
1940-06-28,4131.56
1940-06-29,4131.78
1940-06-30,4131.8
1940-07-01,4131.85
1940-07-02,4131.9
1940-07-03,4131.63
1940-07-04,4130.97
1940-07-05,4130.13
1940-07-06,4128.72
1940-07-07,4128.1
1940-07-08,4128.1
1940-07-09,4128.05
1940-07-10,4128.01
1940-07-11,4127.75
1940-07-12,4127.7
1940-07-13,4128.06
1940-07-14,4128.4
1940-07-15,4128.52
1940-07-16,4128.64
1940-07-17,4128.72
1940-07-18,4128.54
1940-07-19,4128.63
1940-07-20,4128.83
1940-07-21,4129.0
1940-07-22,4128.71
1940-07-23,4128.62
1940-07-24,4128.82
1940-07-25,4128.92
1940-07-26,4128.56
1940-07-27,4128.37
1940-07-28,4128.05
1940-07-29,4128.19
1940-07-30,4127.88
1940-07-31,4128.12
1940-08-01,4128.18
1940-08-02,4128.28
1940-08-03,4128.22
1940-08-04,4128.84
1940-08-05,4129.26
1940-08-06,4129.3
1940-08-07,4128.61
1940-08-08,4128.48
1940-08-09,4128.38
1940-08-10,4128.23
1940-08-11,4128.12
1940-08-12,4128.04
1940-08-13,4128.28
1940-08-14,4128.58
1940-08-15,4128.85
1940-08-16,4129.02
1940-08-17,4129.15
1940-08-18,4129.06
1940-08-19,4128.97
1940-08-20,4128.9
1940-08-21,4128.91
1940-08-22,4128.94
1940-08-23,4128.95
1940-08-24,4128.88
1940-08-25,4128.87
1940-08-26,4128.73
1940-08-27,4128.62
1940-08-28,4128.54
1940-08-29,4128.53
1940-08-30,4128.39
1940-08-31,4128.28
1940-09-01,4128.17
1940-09-02,4128.1
1940-09-03,4128.11
1940-09-04,4128.18
1940-09-05,4128.22
1940-09-06,4128.41
1940-09-07,4128.49
1940-09-08,4128.48
1940-09-09,4128.52
1940-09-10,4128.29
1940-09-11,4128.44
1940-09-12,4128.33
1940-09-13,4128.13
1940-09-14,4127.97
1940-09-15,4127.82
1940-09-16,4127.83
1940-09-17,4127.42
1940-09-18,4127.26
1940-09-19,4127.33
1940-09-20,4127.38
1940-09-21,4127.51
1940-09-22,4127.78
1940-09-23,4127.96
1940-09-24,4127.8
1940-09-25,4127.54
1940-09-26,4127.12
1940-09-27,4126.49
1940-09-28,4125.7
1940-09-29,4124.84
1940-09-30,4123.9
1940-10-01,4123.12
1940-10-02,4123.15
1940-10-03,4123.26
1940-10-04,4123.42
1940-10-05,4123.54
1940-10-06,4123.74
1940-10-07,4123.91
1940-10-08,4124.06
1940-10-09,4124.21
1940-10-10,4124.4
1940-10-11,4124.52
1940-10-12,4124.68
1940-10-13,4124.85
1940-10-14,4125.0
1940-10-15,4125.12
1940-10-16,4125.26
1940-10-17,4125.4
1940-10-18,4125.54
1940-10-19,4125.67
1940-10-20,4125.81
1940-10-21,4125.95
1940-10-22,4126.11
1940-10-23,4126.23
1940-10-24,4126.34
1940-10-25,4126.38
1940-10-26,4126.0
1940-10-27,4125.7
1940-10-28,4125.8
1940-10-29,4125.92
1940-10-30,4126.07
1940-10-31,4126.24
1940-11-01,4126.34
1940-11-02,4126.46
1940-11-03,4126.56
1940-11-04,4126.7
1940-11-05,4126.83
1940-11-06,4126.94
1940-11-07,4127.08
1940-11-08,4127.23
1940-11-09,4127.33
1940-11-10,4127.45
1940-11-11,4127.54
1940-11-12,4127.64
1940-11-13,4127.75
1940-11-14,4127.85
1940-11-15,4127.96
1940-11-16,4128.06
1940-11-17,4128.18
1940-11-18,4128.28
1940-11-19,4128.37
1940-11-20,4128.51
1940-11-21,4128.61
1940-11-22,4128.61
1940-11-23,4128.14
1940-11-24,4127.6
1940-11-25,4127.4
1940-11-26,4127.53
1940-11-27,4127.67
1940-11-28,4127.84
1940-11-29,4127.98
1940-11-30,4128.13
1940-12-01,4128.27
1940-12-02,4128.43
1940-12-03,4128.55
1940-12-04,4128.68
1940-12-05,4128.84
1940-12-06,4129.0
1940-12-07,4129.14
1940-12-08,4129.26
1940-12-09,4129.38
1940-12-10,4129.51
1940-12-11,4129.62
1940-12-12,4129.71
1940-12-13,4129.82
1940-12-14,4129.97
1940-12-15,4130.45
1940-12-16,4130.98
1940-12-17,4131.55
1940-12-18,4132.14
1940-12-19,4132.62
1940-12-20,4133.11
1940-12-21,4133.68
1940-12-22,4134.19
1940-12-23,4134.6
1940-12-24,4135.03
1940-12-25,4135.56
1940-12-26,4135.97
1940-12-27,4136.45
1940-12-28,4137.05
1940-12-29,4137.55
1940-12-30,4138.01
1940-12-31,4138.62
1941-01-01,4139.2
1941-01-02,4139.66
1941-01-03,4140.19
1941-01-04,4140.69
1941-01-05,4141.18
1941-01-06,4141.53
1941-01-07,4142.0
1941-01-08,4142.48
1941-01-09,4142.91
1941-01-10,4143.34
1941-01-11,4143.73
1941-01-12,4144.17
1941-01-13,4144.47
1941-01-14,4144.82
1941-01-15,4145.21
1941-01-16,4145.55
1941-01-17,4145.92
1941-01-18,4146.27
1941-01-19,4146.62
1941-01-20,4146.86
1941-01-21,4147.21
1941-01-22,4147.56
1941-01-23,4147.92
1941-01-24,4148.25
1941-01-25,4148.57
1941-01-26,4148.92
1941-01-27,4149.2
1941-01-28,4149.53
1941-01-29,4149.89
1941-01-30,4150.23
1941-01-31,4150.54
1941-02-01,4150.9
1941-02-02,4151.2
1941-02-03,4151.43
1941-02-04,4151.74
1941-02-05,4152.04
1941-02-06,4152.32
1941-02-07,4152.62
1941-02-08,4152.92
1941-02-09,4153.19
1941-02-10,4153.43
1941-02-11,4153.68
1941-02-12,4153.95
1941-02-13,4154.24
1941-02-14,4154.5
1941-02-15,4154.76
1941-02-16,4155.01
1941-02-17,4155.18
1941-02-18,4155.42
1941-02-19,4155.67
1941-02-20,4155.92
1941-02-21,4156.08
1941-02-22,4156.32
1941-02-23,4156.35
1941-02-24,4156.36
1941-02-25,4156.45
1941-02-26,4156.57
1941-02-27,4156.68
1941-02-28,4156.8
1941-03-01,4156.92
1941-03-02,4157.02
1941-03-03,4157.17
1941-03-04,4157.38
1941-03-05,4157.62
1941-03-06,4157.87
1941-03-07,4158.08
1941-03-08,4158.28
1941-03-09,4158.5
1941-03-10,4158.62
1941-03-11,4158.76
1941-03-12,4158.8
1941-03-13,4158.75
1941-03-14,4158.7
1941-03-15,4158.6
1941-03-16,4158.59
1941-03-17,4158.5
1941-03-18,4158.55
1941-03-19,4158.65
1941-03-20,4158.68
1941-03-21,4158.67
1941-03-22,4158.67
1941-03-23,4158.53
1941-03-24,4158.38
1941-03-25,4158.27
1941-03-26,4158.08
1941-03-27,4157.9
1941-03-28,4157.72
1941-03-29,4157.51
1941-03-30,4157.26
1941-03-31,4156.89
1941-04-01,4156.56
1941-04-02,4156.25
1941-04-03,4155.91
1941-04-04,4155.51
1941-04-05,4155.15
1941-04-06,4154.69
1941-04-07,4154.07
1941-04-08,4153.63
1941-04-09,4153.15
1941-04-10,4152.68
1941-04-11,4152.17
1941-04-12,4151.79
1941-04-13,4151.3
1941-04-14,4150.73
1941-04-15,4150.2
1941-04-16,4149.76
1941-04-17,4149.3
1941-04-18,4148.79
1941-04-19,4148.28
1941-04-20,4147.81
1941-04-21,4147.48
1941-04-22,4147.03
1941-04-23,4146.74
1941-04-24,4146.5
1941-04-25,4146.3
1941-04-26,4146.22
1941-04-27,4146.14
1941-04-28,4146.06
1941-04-29,4146.0
1941-04-30,4145.95
1941-05-01,4145.98
1941-05-02,4145.98
1941-05-03,4146.03
1941-05-04,4146.06
1941-05-05,4146.09
1941-05-06,4146.11
1941-05-07,4146.06
1941-05-08,4145.97
1941-05-09,4145.85
1941-05-10,4145.59
1941-05-11,4145.36
1941-05-12,4145.14
1941-05-13,4144.94
1941-05-14,4144.59
1941-05-15,4144.26
1941-05-16,4143.97
1941-05-17,4143.72
1941-05-18,4143.5
1941-05-19,4143.23
1941-05-20,4142.98
1941-05-21,4142.82
1941-05-22,4142.56
1941-05-23,4142.38
1941-05-24,4142.31
1941-05-25,4142.31
1941-05-26,4142.25
1941-05-27,4142.29
1941-05-28,4142.18
1941-05-29,4142.06
1941-05-30,4141.91
1941-05-31,4141.72
1941-06-01,4141.48
1941-06-02,4141.17
1941-06-03,4140.85
1941-06-04,4140.6
1941-06-05,4140.25
1941-06-06,4139.82
1941-06-07,4139.4
1941-06-08,4138.9
1941-06-09,4138.4
1941-06-10,4137.95
1941-06-11,4137.54
1941-06-12,4137.11
1941-06-13,4136.65
1941-06-14,4136.35
1941-06-15,4135.67
1941-06-16,4134.95
1941-06-17,4134.15
1941-06-18,4133.43
1941-06-19,4132.5
1941-06-20,4131.52
1941-06-21,4130.46
1941-06-22,4129.67
1941-06-23,4129.66
1941-06-24,4129.78
1941-06-25,4129.84
1941-06-26,4129.9
1941-06-27,4129.99
1941-06-28,4129.85
1941-06-29,4129.37
1941-06-30,4129.03
1941-07-01,4128.78
1941-07-02,4128.65
1941-07-03,4128.62
1941-07-04,4128.82
1941-07-05,4129.12
1941-07-06,4129.2
1941-07-07,4129.24
1941-07-08,4129.27
1941-07-09,4129.18
1941-07-10,4129.0
1941-07-11,4128.99
1941-07-12,4129.21
1941-07-13,4129.42
1941-07-14,4129.48
1941-07-15,4129.44
1941-07-16,4129.04
1941-07-17,4128.92
1941-07-18,4128.94
1941-07-19,4128.97
1941-07-20,4129.01
1941-07-21,4129.08
1941-07-22,4129.31
1941-07-23,4129.37
1941-07-24,4128.8
1941-07-25,4128.88
1941-07-26,4129.04
1941-07-27,4129.27
1941-07-28,4129.68
1941-07-29,4129.56
1941-07-30,4129.3
1941-07-31,4129.21
1941-08-01,4129.37
1941-08-02,4129.6
1941-08-03,4129.8
1941-08-04,4129.53
1941-08-05,4129.12
1941-08-06,4129.14